Weather History for Vernal, UT

Change the Weather History Date:

Monday, May 5, 2014

  Actual Average Record
Temperature  
Mean Temperature 60 °F 53 °F  
Max Temperature 78 °F 66 °F 86 °F (2004)
Min Temperature 41 °F 40 °F 20 °F (1953)
Degree Days  
Heating Degree Days 5 12  
Month to date heating degree days 41 63  
Since 1 July heating degree days 7129 6942  
Cooling Degree Days 0 0  
Month to date cooling degree days 0 0  
Year to date cooling degree days 0 0  
Growing Degree Days 10 (Base 50)    
Moisture  
Dew Point 16 °F    
Average Humidity 28    
Maximum Humidity 49    
Minimum Humidity 7    
Precipitation  
Precipitation 0.00 in 0.03 in 0.69 in (1975)
Month to date precipitation 0.00 0.17  
Year to date precipitation 1.83 2.69  
Sea Level Pressure  
Sea Level Pressure 29.66 in    
Wind  
Wind Speed 10 mph (WSW)    
Max Wind Speed 24 mph    
Max Gust Speed 32 mph    
Visibility 10 miles    
Events      
T = Trace of Precipitation, MM = Missing Value Source: NWS Daily Summary

Daily Weather History Graph

Daily Weather History Graph

Search for Another Location

Airport:

Trip Planner

Search our weather history database for the weather conditions in past years. The results will help you decide how hot, cold, wet, or windy it might be!

Date:

Astronomy

May. 05, 2014 Rise Set
Actual Time 6:12 AM MDT 8:17 PM MDT
Civil Twilight 5:42 AM MDT 8:47 PM MDT
Nautical Twilight 5:05 AM MDT 9:24 PM MDT
Astronomical Twilight 4:25 AM MDT 10:04 PM MDT
Moon 11:35 AM MDT (5/5) 1:03 AM MDT (5/5)
Length of Visible Light 15h 05m
Length of Day
14h 05m
Waxing Crescent, 37% of the Moon is Illuminated
May 5
Waxing Crescent
May 6
First Quarter
May 14
Full
May 21
Last Quarter
May 28
New

Hourly Weather History & Observations

Time (MDT) Temp. Windchill Dew Point Humidity Pressure Visibility Wind Dir Wind Speed Gust Speed Precip Events Conditions
12:53 AM 55.0 °F - 18.0 °F 23% 29.72 in 10.0 mi Calm Calm - N/A   Clear
1:53 AM 52.0 °F - 21.0 °F 30% 29.71 in 10.0 mi NW 4.6 mph - N/A   Clear
2:53 AM 48.0 °F - 24.1 °F 39% 29.72 in 10.0 mi NNW 4.6 mph - N/A   Clear
3:53 AM 46.9 °F - 23.0 °F 39% 29.74 in 10.0 mi NNW 3.5 mph - N/A   Clear
4:53 AM 46.0 °F 44.8 °F 21.9 °F 39% 29.75 in 10.0 mi NNW 3.5 mph - N/A   Clear
5:53 AM 43.0 °F 40.3 °F 24.1 °F 47% 29.78 in 10.0 mi NW 4.6 mph - N/A   Clear
6:53 AM 42.1 °F 38.4 °F 23.0 °F 47% 29.79 in 10.0 mi West 5.8 mph - N/A   Clear
7:53 AM 52.0 °F - 24.1 °F 34% 29.78 in 10.0 mi Calm Calm - N/A   Clear
8:53 AM 62.1 °F - 19.9 °F 20% 29.75 in 10.0 mi Calm Calm - N/A   Clear
9:53 AM 66.0 °F - 18.0 °F 16% 29.73 in 10.0 mi SSE 5.8 mph - N/A   Clear
10:53 AM 71.1 °F - 16.0 °F 12% 29.71 in 10.0 mi SE 9.2 mph - N/A   Clear
12:53 PM 75.0 °F - 12.9 °F 9% 29.67 in 10.0 mi SSW 18.4 mph 26.5 mph N/A   Clear
1:53 PM 75.9 °F - 8.1 °F 7% 29.63 in 10.0 mi SW 17.3 mph - N/A   Clear
2:53 PM 73.9 °F - 12.0 °F 9% 29.62 in 10.0 mi South 15.0 mph 28.8 mph N/A   Clear
3:53 PM 77.0 °F - 15.1 °F 10% 29.58 in 10.0 mi South 18.4 mph 26.5 mph N/A   Clear
4:53 PM 75.9 °F - 9.0 °F 8% 29.56 in 9.0 mi SSW 16.1 mph 29.9 mph N/A   Clear
5:53 PM 73.9 °F - 12.9 °F 10% 29.57 in 10.0 mi SW 15.0 mph 21.9 mph N/A   Clear
6:53 PM 70.0 °F - 19.0 °F 14% 29.57 in 10.0 mi South 13.8 mph - N/A   Clear
7:53 PM 71.1 °F - 10.0 °F 9% 29.54 in 10.0 mi South 18.4 mph 24.2 mph N/A   Clear
8:53 PM 70.0 °F - 10.9 °F 10% 29.54 in 10.0 mi West 17.3 mph 21.9 mph N/A   Clear
9:53 PM 66.9 °F - 9.0 °F 10% 29.55 in 10.0 mi West 6.9 mph - N/A   Clear
10:53 PM 64.0 °F - 9.0 °F 12% 29.55 in 10.0 mi West 8.1 mph - N/A   Clear
11:53 PM 64.9 °F - 5.0 °F 9% 29.54 in 10.0 mi WSW 8.1 mph - N/A   Clear